Location: Newark
(49.8969°N, 3.3422°E)
Time: 05:02:06
(UTC+00:00)

Envisat - Pass Details

Date: 14 December 2019
Orbit: 764 x 766 km, 98.1° (Epoch: 20 January)

Event Time Altitude Azimuth Distance (km) Brightness Sun altitude
Rises 05:29:54 0° 25° (NNE) 3,245 6.4 -19.3°
Reaches altitude 10° 05:32:47 10° 41° (NE) 2,313 5.8 -18.8°
Maximum altitude 05:36:36 21° 90° (E) 1,673 5.7 -18.2°
Drops below altitude 10° 05:40:24 10° 139° (SE) 2,299 6.3 -17.6°
Sets 05:43:14 0° 155° (SSE) 3,219 6.8 -17.2°
